Flag for U.S.A. Weather past 2 weeks in Jackson, Mississippi, U.S.A.

Now
85 °F

Sunny.


Feels Like: 84 °F
Forecast: 66 / 86 °F
Wind: 8 mph from Northwest

Location: Hawkins Field

Current Time: Apr 26, 2015 at 6:05:31 PM

Latest Report: Apr 26, 2015 at 4:53 PM


Visibility: 10 mi

Pressure: 29.70 "Hg

Humidity: 39%

Dew point: 57 °F

Location of JacksonLocation

Historic Weather in Jackson — Graph

°F

Jackson temperature yesterday

Maximum temperature yesterday: 81 °F (at 4:53 PM)
Minimum temperature yesterday: 64 °F (at 4:53 AM)
Average temperature yesterday: 72 °F

Past Weeks' High & Low Weather Summary

 TemperatureHumidityPressure
High86 °F (Apr 26, 2:53 PM)97% (Apr 14, 10:53 PM)30.08 "Hg (Apr 14, 10:53 PM)
Low50 °F (Apr 21, 5:53 AM)25% (Apr 21, 3:53 PM)29.64 "Hg (Apr 25, 5:53 PM)
Average69 °F77%29.92 "Hg
* Reported Apr 11 4:53 PM — Apr 26 4:53 PM, Jackson, Weather by CustomWeather, © 2015

Note: Actual official high and low records may vary slightly from our data, if they occured in-between our weather recording intervals... More about our weather records

Advertising

Jackson weather history for previous 24 hours

 ConditionsComfort  
Time TempWeatherWind HumidityBarometerVisibility
4:53 PM
Sun, Apr 26
85 °FSunny.8 mph39%29.70 "Hg10 mi
3:53 PM85 °FPassing clouds.7 mph40%29.71 "Hg10 mi
2:53 PM86 °FSunny.9 mph37%29.72 "Hg10 mi
1:53 PM85 °FSunny.5 mph43%29.72 "Hg10 mi
12:53 PM84 °FSunny.N/A45%29.74 "Hg10 mi
11:53 AM83 °FSunny.7 mph48%29.75 "Hg10 mi
10:53 AM80 °FSunny.7 mph58%29.74 "Hg10 mi
9:53 AM76 °FSunny.5 mph72%29.74 "Hg10 mi
8:53 AM72 °FSunny.9 mph81%29.74 "Hg10 mi
7:53 AM68 °FSunny.7 mph90%29.74 "Hg10 mi
6:53 AM65 °FClear.3 mph94%29.72 "Hg10 mi
5:53 AM66 °FClear.No wind93%29.69 "Hg10 mi
4:53 AM66 °FClear.5 mph93%29.69 "Hg10 mi
3:53 AM67 °FClear.6 mph90%29.69 "Hg10 mi
2:53 AM68 °FClear.9 mph90%29.68 "Hg10 mi
1:53 AM68 °FClear.9 mph90%29.68 "Hg10 mi
12:53 AM68 °FClear.10 mph90%29.69 "Hg10 mi
11:53 PM
Sat, Apr 25
69 °FClear.9 mph87%29.69 "Hg10 mi
10:53 PM69 °FClear.8 mph87%29.68 "Hg10 mi
9:53 PM70 °FClear.8 mph81%29.68 "Hg10 mi
8:53 PM70 °FClear.6 mph79%29.66 "Hg10 mi
7:53 PM73 °FSunny.5 mph71%29.65 "Hg10 mi
6:53 PM77 °FSunny.N/A60%29.64 "Hg10 mi
Weather by CustomWeather, © 2015

See weather overviewHow to use our weather pages